This demonstration page uses our WeatherBlox Daily Observations layout. Learn more.

Left ArrowRight Arrow

Hourly Observations for March 16, 2020

Temp ( °F °C ) Dew Point ( °F °C ) Humidity (%) Winds ( mph kmh ) Pressure ( in mb ) Visibility ( mi km ) Precip ( " mm )
12:39 am 00:39 Cloudy with Mist and Fog 34 1 32 0 93 93 SE 3 6 30.40 1029 6 10 0.00 0.00
12:56 am 00:56 Cloudy 33 0.8 31 -0.4 92 92 SE 3 6 30.40 1029 7 11 0.00 0.00
1:56 am 01:56 Cloudy with Mist and Fog 33 0.7 31 -0.3 93 93 SE 6 9 30.37 1028 5 8 0.00 0.00
2:11 am 02:11 Cloudy with Mist and Fog 34 1 32 0 93 93 SE 5 7 30.35 1028 6 10 0.00 0.00
2:56 am 02:56 Cloudy 33 0.8 32 -0.2 93 93 SE 5 7 30.35 1028 7 11 0.00 0.00
3:56 am 03:56 Cloudy with Mist and Fog 34 0.9 32 -0.1 93 93 SE 5 7 30.33 1027 6 10 0.00 0.00
4:56 am 04:56 Cloudy with Mist and Fog 34 1 32 0.1 94 94 SE 5 7 30.31 1027 4 6 0.00 0.00
5:11 am 05:11 Cloudy with Mist and Fog 34 1 32 0 93 93 SE 5 7 30.32 1027 5 8 0.00 0.00
5:56 am 05:56 Cloudy with Mist and Fog 34 1.2 33 0.3 94 94 SSE 6 9 30.30 1026 6 10 0.00 0.00
6:56 am 06:56 Cloudy with Mist and Fog 34 1.3 33 0.3 93 93 SSE 7 11 30.29 1026 8 13 0.00 0.00
7:02 am 07:02 Cloudy with Drizzle 34 1 32 0 93 93 SSE 7 11 30.30 1026 8 13 0.00 0.00
7:41 am 07:41 Cloudy 34 1 32 0 93 93 Calm 30.30 1026 8 13 0.00 0.00
7:56 am 07:56 Cloudy 35 1.4 32 0.2 92 92 SE 5 7 30.30 1026 9 14 0.00 0.00
8:41 am 08:41 Cloudy 36 2 34 1 93 93 S 3 6 30.30 1026 10 16 0.00 0.00
8:56 am 08:56 Cloudy 35 1.9 33 0.6 91 91 SSE 6 9 30.29 1026 10 16 0.00 0.00
9:11 am 09:11 Cloudy 36 2 34 1 93 93 S 6 9 30.29 1026 10 16 0.00 0.00
9:41 am 09:41 Cloudy 36 2 34 1 93 93 SSE 5 7 30.29 1026 10 16 0.00 0.00
9:56 am 09:56 Cloudy 37 2.6 34 1.1 90 90 S 6 9 30.29 1026 10 16 0.00 0.00
10:56 am 10:56 Cloudy 38 3.4 35 1.4 87 87 S 6 9 30.29 1026 10 16 0.00 0.00
11:11 am 11:11 Cloudy 39 4 36 2 87 87 S 5 7 30.28 1025 10 16 0.00 0.00
11:56 am 11:56 Cloudy 40 4.7 36 2.2 84 84 W 3 6 30.28 1025 10 16 0.00 0.00
12:11 pm 12:11 Cloudy 41 5 36 2 81 81 W 5 7 30.27 1025 10 16 0.00 0.00
12:56 pm 12:56 Cloudy 42 5.6 36 2.2 79 79 WNW 5 7 30.26 1025 10 16 0.00 0.00
1:56 pm 13:56 Cloudy 42 5.7 37 2.5 80 80 W 5 7 30.26 1025 10 16 0.00 0.00
2:56 pm 14:56 Cloudy 43 6 37 2.8 80 80 WNW 6 9 30.24 1024 10 16 0.00 0.00
3:11 pm 15:11 Cloudy with Drizzle 43 6 37 3 81 81 NW 5 7 30.24 1024 10 16 0.00 0.00
3:56 pm 15:56 Cloudy 43 6 38 3.5 84 84 NW 5 7 30.23 1024 10 16 0.00 0.00
4:56 pm 16:56 Cloudy 43 6 38 3.2 82 82 NW 7 11 30.23 1024 10 16 0.00 0.00
5:56 pm 17:56 Cloudy 43 6.1 38 3.1 81 81 WNW 6 9 30.22 1023 10 16 0.00 0.00
6:56 pm 18:56 Cloudy 43 6.1 37 2.9 80 80 NNW 3 6 30.23 1024 10 16 0.00 0.00
7:41 pm 19:41 Cloudy 43 6 37 3 81 81 NW 3 6 30.24 1024 10 16 0.00 0.00
7:56 pm 19:56 Cloudy 42 5.6 37 2.6 81 81 NW 3 6 30.24 1024 10 16 0.00 0.00
8:56 pm 20:56 Cloudy 41 5 37 2.7 85 85 Calm 30.25 1024 10 16 0.00 0.00
9:56 pm 21:56 Cloudy 41 4.8 37 2.5 85 85 Calm 30.27 1025 10 16 0.00 0.00
10:56 pm 22:56 Cloudy 42 5.5 37 2.8 83 83 NW 6 9 30.28 1026 10 16 0.00 0.00
11:56 pm 23:56 Cloudy 41 5.2 35 1.7 78 78 NNW 12 19 30.29 1026 10 16 0.00 0.00

Powered by AerisWeather